Year,Month,Day,Hour,Minute,Value (Times are PST for temperature in C)
2012,05,02,00,00,7.10
2012,05,02,00,01,7.10
2012,05,02,00,02,7.10
2012,05,02,00,03,7.00
2012,05,02,00,04,7.00
2012,05,02,00,05,7.00
2012,05,02,00,06,6.90
2012,05,02,00,07,6.90
2012,05,02,00,08,6.90
2012,05,02,00,09,6.90
2012,05,02,00,10,6.90
2012,05,02,00,11,6.90
2012,05,02,00,12,6.90
2012,05,02,00,13,6.90
2012,05,02,00,14,6.90
2012,05,02,00,15,6.90
2012,05,02,00,16,6.90
2012,05,02,00,17,6.90
2012,05,02,00,18,6.80
2012,05,02,00,19,6.80
2012,05,02,00,20,6.80
2012,05,02,00,21,6.80
2012,05,02,00,22,6.80
2012,05,02,00,23,6.80
2012,05,02,00,24,6.80
2012,05,02,00,25,6.80
2012,05,02,00,26,6.70
2012,05,02,00,27,6.70
2012,05,02,00,28,6.70
2012,05,02,00,29,6.70
2012,05,02,00,30,6.70
2012,05,02,00,31,6.70
2012,05,02,00,32,6.70
2012,05,02,00,33,6.70
2012,05,02,00,34,6.70
2012,05,02,00,35,6.70
2012,05,02,00,36,6.70
2012,05,02,00,37,6.60
2012,05,02,00,38,6.60
2012,05,02,00,39,6.60
2012,05,02,00,40,6.60
2012,05,02,00,41,6.60
2012,05,02,00,42,6.60
2012,05,02,00,43,6.60
2012,05,02,00,44,6.60
2012,05,02,00,45,6.60
2012,05,02,00,46,6.60
2012,05,02,00,47,6.60
2012,05,02,00,48,6.60
2012,05,02,00,49,6.60
2012,05,02,00,50,6.50
2012,05,02,00,51,6.50
2012,05,02,00,52,6.50
2012,05,02,00,53,6.50
2012,05,02,00,54,6.40
2012,05,02,00,55,6.40
2012,05,02,00,56,6.40
2012,05,02,00,57,6.40
2012,05,02,00,58,6.40
2012,05,02,00,59,6.40
2012,05,02,01,00,6.40
2012,05,02,01,01,6.40
2012,05,02,01,02,6.40
2012,05,02,01,03,6.40
2012,05,02,01,04,6.30
2012,05,02,01,05,6.30
2012,05,02,01,06,6.30
2012,05,02,01,07,6.30
2012,05,02,01,08,6.30
2012,05,02,01,09,6.30
2012,05,02,01,10,6.20
2012,05,02,01,11,6.20
2012,05,02,01,12,6.20
2012,05,02,01,13,6.20
2012,05,02,01,14,6.20
2012,05,02,01,15,6.20
2012,05,02,01,16,6.10
2012,05,02,01,17,6.10
2012,05,02,01,18,6.10
2012,05,02,01,19,6.10
2012,05,02,01,20,6.10
2012,05,02,01,21,6.10
2012,05,02,01,22,6.10
2012,05,02,01,23,6.10
2012,05,02,01,24,6.10
2012,05,02,01,25,6.10
2012,05,02,01,26,6.10
2012,05,02,01,27,6.10
2012,05,02,01,28,6.00
2012,05,02,01,29,6.00
2012,05,02,01,30,6.00
2012,05,02,01,31,6.00
2012,05,02,01,32,6.00
2012,05,02,01,33,6.00
2012,05,02,01,34,6.00
2012,05,02,01,35,6.00
2012,05,02,01,36,5.90
2012,05,02,01,37,5.90
2012,05,02,01,38,5.90
2012,05,02,01,39,5.90
2012,05,02,01,40,5.90
2012,05,02,01,41,5.90
2012,05,02,01,42,5.80
2012,05,02,01,43,5.80
2012,05,02,01,44,5.80
2012,05,02,01,45,5.70
2012,05,02,01,46,5.70
2012,05,02,01,47,5.70
2012,05,02,01,48,5.70
2012,05,02,01,49,5.70
2012,05,02,01,50,5.60
2012,05,02,01,51,5.70
2012,05,02,01,52,5.60
2012,05,02,01,53,5.60
2012,05,02,01,54,5.60
2012,05,02,01,55,5.60
2012,05,02,01,56,5.60
2012,05,02,01,57,5.60
2012,05,02,01,58,5.60
2012,05,02,01,59,5.60
2012,05,02,02,00,5.60
2012,05,02,02,01,5.50
2012,05,02,02,02,5.50
2012,05,02,02,03,5.50
2012,05,02,02,04,5.40
2012,05,02,02,05,5.40
2012,05,02,02,06,5.40
2012,05,02,02,07,5.30
2012,05,02,02,08,5.30
2012,05,02,02,09,5.20
2012,05,02,02,10,5.20
2012,05,02,02,11,5.20
2012,05,02,02,12,5.10
2012,05,02,02,13,5.00
2012,05,02,02,14,5.00
2012,05,02,02,15,4.90
2012,05,02,02,16,4.90
2012,05,02,02,17,4.90
2012,05,02,02,18,4.90
2012,05,02,02,19,4.90
2012,05,02,02,20,4.90
2012,05,02,02,21,4.80
2012,05,02,02,22,4.90
2012,05,02,02,23,4.80
2012,05,02,02,24,4.80
2012,05,02,02,25,4.80
2012,05,02,02,26,4.80
2012,05,02,02,27,4.80
2012,05,02,02,28,4.80
2012,05,02,02,29,4.70
2012,05,02,02,30,4.70
2012,05,02,02,31,4.70
2012,05,02,02,32,4.70
2012,05,02,02,33,4.70
2012,05,02,02,34,4.60
2012,05,02,02,35,4.60
2012,05,02,02,36,4.60
2012,05,02,02,37,4.60
2012,05,02,02,38,4.60
2012,05,02,02,39,4.60
2012,05,02,02,40,4.50
2012,05,02,02,41,4.50
2012,05,02,02,42,4.50
2012,05,02,02,43,4.50
2012,05,02,02,44,4.50
2012,05,02,02,45,4.50
2012,05,02,02,46,4.50
2012,05,02,02,47,4.40
2012,05,02,02,48,4.40
2012,05,02,02,49,4.40
2012,05,02,02,50,4.40
2012,05,02,02,51,4.40
2012,05,02,02,52,4.30
2012,05,02,02,53,4.30
2012,05,02,02,54,4.30
2012,05,02,02,55,4.30
2012,05,02,02,56,4.30
2012,05,02,02,57,4.20
2012,05,02,02,58,4.20
2012,05,02,02,59,4.10
2012,05,02,03,00,4.10
2012,05,02,03,01,4.00
2012,05,02,03,02,4.00
2012,05,02,03,03,3.90
2012,05,02,03,04,3.90
2012,05,02,03,05,3.90
2012,05,02,03,06,3.80
2012,05,02,03,07,3.80
2012,05,02,03,08,3.80
2012,05,02,03,09,3.80
2012,05,02,03,10,3.80
2012,05,02,03,11,3.80
2012,05,02,03,12,3.80
2012,05,02,03,13,3.80
2012,05,02,03,14,3.80
2012,05,02,03,15,3.80
2012,05,02,03,16,3.70
2012,05,02,03,17,3.70
2012,05,02,03,18,3.70
2012,05,02,03,19,3.70
2012,05,02,03,20,3.60
2012,05,02,03,21,3.60
2012,05,02,03,22,3.60
2012,05,02,03,23,3.60
2012,05,02,03,24,3.50
2012,05,02,03,25,3.50
2012,05,02,03,26,3.50
2012,05,02,03,27,3.50
2012,05,02,03,28,3.40
2012,05,02,03,29,3.40
2012,05,02,03,30,3.40
2012,05,02,03,31,3.40
2012,05,02,03,32,3.30
2012,05,02,03,33,3.30
2012,05,02,03,34,3.30
2012,05,02,03,35,3.30
2012,05,02,03,36,3.30
2012,05,02,03,37,3.30
2012,05,02,03,38,3.20
2012,05,02,03,39,3.30
2012,05,02,03,40,3.30
2012,05,02,03,41,3.30
2012,05,02,03,42,3.30
2012,05,02,03,43,3.20
2012,05,02,03,44,3.20
2012,05,02,03,45,3.20
2012,05,02,03,46,3.20
2012,05,02,03,47,3.20
2012,05,02,03,48,3.20
2012,05,02,03,49,3.20
2012,05,02,03,50,3.10
2012,05,02,03,51,3.10
2012,05,02,03,52,3.10
2012,05,02,03,53,3.10
2012,05,02,03,54,3.10
2012,05,02,03,55,3.10
2012,05,02,03,56,3.10
2012,05,02,03,57,3.10
2012,05,02,03,58,3.10
2012,05,02,03,59,3.10
2012,05,02,04,00,3.10
2012,05,02,04,01,3.10
2012,05,02,04,02,3.10
2012,05,02,04,03,3.10
2012,05,02,04,04,3.10
2012,05,02,04,05,3.00
2012,05,02,04,06,3.00
2012,05,02,04,07,2.90
2012,05,02,04,08,2.90
2012,05,02,04,09,2.90
2012,05,02,04,10,2.90
2012,05,02,04,11,2.90
2012,05,02,04,12,2.90
2012,05,02,04,13,2.90
2012,05,02,04,14,2.80
2012,05,02,04,15,2.80
2012,05,02,04,16,2.80
2012,05,02,04,17,2.80
2012,05,02,04,18,2.80
2012,05,02,04,19,2.70
2012,05,02,04,20,2.70
2012,05,02,04,21,2.70
2012,05,02,04,22,2.70
2012,05,02,04,23,2.70
2012,05,02,04,24,2.70
2012,05,02,04,25,2.70
2012,05,02,04,26,2.70
2012,05,02,04,27,2.70
2012,05,02,04,28,2.70
2012,05,02,04,29,2.70
2012,05,02,04,30,2.70
2012,05,02,04,31,2.70
2012,05,02,04,32,2.60
2012,05,02,04,33,2.60
2012,05,02,04,34,2.60
2012,05,02,04,35,2.60
2012,05,02,04,36,2.60
2012,05,02,04,37,2.60
2012,05,02,04,38,2.60
2012,05,02,04,39,2.50
2012,05,02,04,40,2.50
2012,05,02,04,41,2.50
2012,05,02,04,42,2.50
2012,05,02,04,43,2.50
2012,05,02,04,44,2.60
2012,05,02,04,45,2.60
2012,05,02,04,46,2.60
2012,05,02,04,47,2.60
2012,05,02,04,48,2.60
2012,05,02,04,49,2.60
2012,05,02,04,50,2.60
2012,05,02,04,51,2.60
2012,05,02,04,52,2.60
2012,05,02,04,53,2.60
2012,05,02,04,54,2.60
2012,05,02,04,55,2.60
2012,05,02,04,56,2.60
2012,05,02,04,57,2.60
2012,05,02,04,58,2.60
2012,05,02,04,59,2.60
2012,05,02,05,00,2.60
2012,05,02,05,01,2.60
2012,05,02,05,02,2.60
2012,05,02,05,03,2.60
2012,05,02,05,04,2.60
2012,05,02,05,05,2.60
2012,05,02,05,06,2.60
2012,05,02,05,07,2.50
2012,05,02,05,08,2.50
2012,05,02,05,09,2.50
2012,05,02,05,10,2.40
2012,05,02,05,11,2.40
2012,05,02,05,12,2.40
2012,05,02,05,13,2.40
2012,05,02,05,14,2.40
2012,05,02,05,15,2.40
2012,05,02,05,16,2.30
2012,05,02,05,17,2.30
2012,05,02,05,18,2.30
2012,05,02,05,19,2.20
2012,05,02,05,20,2.20
2012,05,02,05,21,2.20
2012,05,02,05,22,2.20
2012,05,02,05,23,2.10
2012,05,02,05,24,2.10
2012,05,02,05,25,2.10
2012,05,02,05,26,2.10
2012,05,02,05,27,2.10
2012,05,02,05,28,2.10
2012,05,02,05,29,2.10
2012,05,02,05,30,2.00
2012,05,02,05,31,2.00
2012,05,02,05,32,2.00
2012,05,02,05,33,2.00
2012,05,02,05,34,1.90
2012,05,02,05,35,1.90
2012,05,02,05,36,1.90
2012,05,02,05,37,1.90
2012,05,02,05,38,1.90
2012,05,02,05,39,1.90
2012,05,02,05,40,1.90
2012,05,02,05,41,1.90
2012,05,02,05,42,1.90
2012,05,02,05,43,1.90
2012,05,02,05,44,1.90
2012,05,02,05,45,1.90
2012,05,02,05,46,1.90
2012,05,02,05,47,1.90
2012,05,02,05,48,1.90
2012,05,02,05,49,1.80
2012,05,02,05,50,1.80
2012,05,02,05,51,1.90
2012,05,02,05,52,1.90
2012,05,02,05,53,1.90
2012,05,02,05,54,1.90
2012,05,02,05,55,1.80
2012,05,02,05,56,1.80
2012,05,02,05,57,1.80
2012,05,02,05,58,1.80
2012,05,02,05,59,1.80
2012,05,02,06,00,1.80
2012,05,02,06,01,1.80
2012,05,02,06,02,1.80
2012,05,02,06,03,1.80
2012,05,02,06,04,1.80
2012,05,02,06,05,1.80
2012,05,02,06,06,1.80
2012,05,02,06,07,1.80
2012,05,02,06,08,1.80
2012,05,02,06,09,1.80
2012,05,02,06,10,1.80
2012,05,02,06,11,1.80
2012,05,02,06,12,1.80
2012,05,02,06,13,1.80
2012,05,02,06,14,1.80
2012,05,02,06,15,1.80
2012,05,02,06,16,1.80
2012,05,02,06,17,1.80
2012,05,02,06,18,1.80
2012,05,02,06,19,1.80
2012,05,02,06,20,1.80
2012,05,02,06,21,1.80
2012,05,02,06,22,1.80
2012,05,02,06,23,1.80
2012,05,02,06,24,1.90
2012,05,02,06,25,1.90
2012,05,02,06,26,1.90
2012,05,02,06,27,1.90
2012,05,02,06,28,1.90
2012,05,02,06,29,1.90
2012,05,02,06,30,2.00
2012,05,02,06,31,2.00
2012,05,02,06,32,2.00
2012,05,02,06,33,2.10
2012,05,02,06,34,2.10
2012,05,02,06,35,2.10
2012,05,02,06,36,2.20
2012,05,02,06,37,2.20
2012,05,02,06,38,2.20
2012,05,02,06,39,2.30
2012,05,02,06,40,2.30
2012,05,02,06,41,2.30
2012,05,02,06,42,2.40
2012,05,02,06,43,2.40
2012,05,02,06,44,2.40
2012,05,02,06,45,2.50
2012,05,02,06,46,2.50
2012,05,02,06,47,2.60
2012,05,02,06,48,2.60
2012,05,02,06,49,2.60
2012,05,02,06,50,2.70
2012,05,02,06,51,2.70
2012,05,02,06,52,2.80
2012,05,02,06,53,2.80
2012,05,02,06,54,2.90
2012,05,02,06,55,3.00
2012,05,02,06,56,3.00
2012,05,02,06,57,3.10
2012,05,02,06,58,3.10
2012,05,02,06,59,3.20
2012,05,02,07,00,3.20
2012,05,02,07,01,3.30
2012,05,02,07,02,3.30
2012,05,02,07,03,3.40
2012,05,02,07,04,3.50
2012,05,02,07,05,3.60
2012,05,02,07,06,3.70
2012,05,02,07,07,3.80
2012,05,02,07,08,3.90
2012,05,02,07,09,3.90
2012,05,02,07,10,4.00
2012,05,02,07,11,4.00
2012,05,02,07,12,4.10
2012,05,02,07,13,4.10
2012,05,02,07,14,4.20
2012,05,02,07,15,4.20
2012,05,02,07,16,4.30
2012,05,02,07,17,4.30
2012,05,02,07,18,4.30
2012,05,02,07,19,4.30
2012,05,02,07,20,4.30
2012,05,02,07,21,4.30
2012,05,02,07,22,4.40
2012,05,02,07,23,4.40
2012,05,02,07,24,4.40
2012,05,02,07,25,4.40
2012,05,02,07,26,4.40
2012,05,02,07,27,4.40
2012,05,02,07,28,4.40
2012,05,02,07,29,4.40
2012,05,02,07,30,4.40
2012,05,02,07,31,4.40
2012,05,02,07,32,4.40
2012,05,02,07,33,4.50
2012,05,02,07,34,4.50
2012,05,02,07,35,4.50
2012,05,02,07,36,4.50
2012,05,02,07,37,4.50
2012,05,02,07,38,4.50
2012,05,02,07,39,4.50
2012,05,02,07,40,4.60
2012,05,02,07,41,4.60
2012,05,02,07,42,4.60
2012,05,02,07,43,4.60
2012,05,02,07,44,4.60
2012,05,02,07,45,4.60
2012,05,02,07,46,4.70
2012,05,02,07,47,4.70
2012,05,02,07,48,4.70
2012,05,02,07,49,4.70
2012,05,02,07,50,4.80
2012,05,02,07,51,4.80
2012,05,02,07,52,4.80
2012,05,02,07,53,4.90
2012,05,02,07,54,4.90
2012,05,02,07,55,5.00
2012,05,02,07,56,5.00
2012,05,02,07,57,5.10
2012,05,02,07,58,5.10
2012,05,02,07,59,5.20
2012,05,02,08,00,5.20
2012,05,02,08,01,5.30
2012,05,02,08,02,5.30
2012,05,02,08,03,5.30
2012,05,02,08,04,5.40
2012,05,02,08,05,5.40
2012,05,02,08,06,5.50
2012,05,02,08,07,5.60
2012,05,02,08,08,5.60
2012,05,02,08,09,5.70
2012,05,02,08,10,5.70
2012,05,02,08,11,5.70
2012,05,02,08,12,5.80
2012,05,02,08,13,5.80
2012,05,02,08,14,5.90
2012,05,02,08,15,5.90
2012,05,02,08,16,6.00
2012,05,02,08,17,6.00
2012,05,02,08,18,6.10
2012,05,02,08,19,6.10
2012,05,02,08,20,6.20
2012,05,02,08,21,6.20
2012,05,02,08,22,6.20
2012,05,02,08,23,6.30
2012,05,02,08,24,6.30
2012,05,02,08,25,6.40
2012,05,02,08,26,6.40
2012,05,02,08,27,6.50
2012,05,02,08,28,6.50
2012,05,02,08,29,6.60
2012,05,02,08,30,6.60
2012,05,02,08,31,6.60
2012,05,02,08,32,6.70
2012,05,02,08,33,6.70
2012,05,02,08,34,6.80
2012,05,02,08,35,6.80
2012,05,02,08,36,6.80
2012,05,02,08,37,6.80
2012,05,02,08,38,6.80
2012,05,02,08,39,6.90
2012,05,02,08,40,6.90
2012,05,02,08,41,6.90
2012,05,02,08,42,6.90
2012,05,02,08,43,6.90
2012,05,02,08,44,7.00
2012,05,02,08,45,7.00
2012,05,02,08,46,7.10
2012,05,02,08,47,7.10
2012,05,02,08,48,7.10
2012,05,02,08,49,7.20
2012,05,02,08,50,7.20
2012,05,02,08,51,7.20
2012,05,02,08,52,7.20
2012,05,02,08,53,7.30
2012,05,02,08,54,7.30
2012,05,02,08,55,7.40
2012,05,02,08,56,7.40
2012,05,02,08,57,7.50
2012,05,02,08,58,7.60
2012,05,02,08,59,7.60
2012,05,02,09,00,7.60
2012,05,02,09,01,7.70
2012,05,02,09,02,7.70
2012,05,02,09,03,7.70
2012,05,02,09,04,7.80
2012,05,02,09,05,7.90
2012,05,02,09,06,7.90
2012,05,02,09,07,8.00
2012,05,02,09,08,8.10
2012,05,02,09,09,8.10
2012,05,02,09,10,8.20
2012,05,02,09,11,8.20
2012,05,02,09,12,8.20
2012,05,02,09,13,8.20
2012,05,02,09,14,8.30
2012,05,02,09,15,8.30
2012,05,02,09,16,8.30
2012,05,02,09,17,8.40
2012,05,02,09,18,8.40
2012,05,02,09,19,8.40
2012,05,02,09,20,8.40
2012,05,02,09,21,8.40
2012,05,02,09,22,8.40
2012,05,02,09,23,8.40
2012,05,02,09,24,8.40
2012,05,02,09,25,8.40
2012,05,02,09,26,8.40
2012,05,02,09,27,8.30
2012,05,02,09,28,8.20
2012,05,02,09,29,8.20
2012,05,02,09,30,8.20
2012,05,02,09,31,8.20
2012,05,02,09,32,8.20
2012,05,02,09,33,8.20
2012,05,02,09,34,8.20
2012,05,02,09,35,8.20
2012,05,02,09,36,8.20
2012,05,02,09,37,8.20
2012,05,02,09,38,8.20
2012,05,02,09,39,8.20
2012,05,02,09,40,8.20
2012,05,02,09,41,8.30
2012,05,02,09,42,8.30
2012,05,02,09,43,8.30
2012,05,02,09,44,8.40
2012,05,02,09,45,8.40
2012,05,02,09,46,8.40
2012,05,02,09,47,8.40
2012,05,02,09,48,8.40
2012,05,02,09,49,8.40
2012,05,02,09,50,8.40
2012,05,02,09,51,8.40
2012,05,02,09,52,8.40
2012,05,02,09,53,8.40
2012,05,02,09,54,8.40
2012,05,02,09,55,8.40
2012,05,02,09,56,8.40
2012,05,02,09,57,8.40
2012,05,02,09,58,8.40
2012,05,02,09,59,8.30
2012,05,02,10,00,8.40
2012,05,02,10,01,8.40
2012,05,02,10,02,8.40
2012,05,02,10,03,8.40
2012,05,02,10,04,8.50
2012,05,02,10,05,8.60
2012,05,02,10,06,8.60
2012,05,02,10,07,8.70
2012,05,02,10,08,8.70
2012,05,02,10,09,8.60
2012,05,02,10,10,8.60
2012,05,02,10,11,8.60
2012,05,02,10,12,8.50
2012,05,02,10,13,8.40
2012,05,02,10,14,8.40
2012,05,02,10,15,8.40
2012,05,02,10,16,8.40
2012,05,02,10,17,8.40
2012,05,02,10,18,8.40
2012,05,02,10,19,8.40
2012,05,02,10,20,8.40
2012,05,02,10,21,8.40
2012,05,02,10,22,8.40
2012,05,02,10,23,8.50
2012,05,02,10,24,8.50
2012,05,02,10,25,8.40
2012,05,02,10,26,8.40
2012,05,02,10,27,8.40
2012,05,02,10,28,8.40
2012,05,02,10,29,8.40
2012,05,02,10,30,8.30
2012,05,02,10,31,8.30
2012,05,02,10,32,8.40
2012,05,02,10,33,8.40
2012,05,02,10,34,8.50
2012,05,02,10,35,8.60
2012,05,02,10,36,8.70
2012,05,02,10,37,8.70
2012,05,02,10,38,8.80
2012,05,02,10,39,8.80
2012,05,02,10,40,8.90
2012,05,02,10,41,9.00
2012,05,02,10,42,9.00
2012,05,02,10,43,9.00
2012,05,02,10,44,8.90
2012,05,02,10,45,8.90
2012,05,02,10,46,8.80
2012,05,02,10,47,8.80
2012,05,02,10,48,8.80
2012,05,02,10,49,8.70
2012,05,02,10,50,8.70
2012,05,02,10,51,8.70
2012,05,02,10,52,8.70
2012,05,02,10,53,8.70
2012,05,02,10,54,8.70
2012,05,02,10,55,8.70
2012,05,02,10,56,8.80
2012,05,02,10,57,8.90
2012,05,02,10,58,8.90
2012,05,02,10,59,8.90
2012,05,02,11,00,8.90
2012,05,02,11,01,8.90
2012,05,02,11,02,9.00
2012,05,02,11,03,8.90
2012,05,02,11,04,8.90
2012,05,02,11,05,8.80
2012,05,02,11,06,8.80
2012,05,02,11,07,8.70
2012,05,02,11,08,8.70
2012,05,02,11,09,8.70
2012,05,02,11,10,8.70
2012,05,02,11,11,8.80
2012,05,02,11,12,8.80
2012,05,02,11,13,8.80
2012,05,02,11,14,8.90
2012,05,02,11,15,9.10
2012,05,02,11,16,9.20
2012,05,02,11,17,9.30
2012,05,02,11,18,9.40
2012,05,02,11,19,9.40
2012,05,02,11,20,9.50
2012,05,02,11,21,9.60
2012,05,02,11,22,9.70
2012,05,02,11,23,9.70
2012,05,02,11,24,9.80
2012,05,02,11,25,9.80
2012,05,02,11,26,9.80
2012,05,02,11,27,9.80
2012,05,02,11,28,9.80
2012,05,02,11,29,9.70
2012,05,02,11,30,9.70
2012,05,02,11,31,9.80
2012,05,02,11,32,9.80
2012,05,02,11,33,9.80
2012,05,02,11,34,9.80
2012,05,02,11,35,9.90
2012,05,02,11,36,10.00
2012,05,02,11,37,10.10
2012,05,02,11,38,10.20
2012,05,02,11,39,10.20
2012,05,02,11,40,10.20
2012,05,02,11,41,10.10
2012,05,02,11,42,10.10
2012,05,02,11,43,10.10
2012,05,02,11,44,10.00
2012,05,02,11,45,10.00
2012,05,02,11,46,10.10
2012,05,02,11,47,10.00
2012,05,02,11,48,9.90
2012,05,02,11,49,9.90
2012,05,02,11,50,9.80
2012,05,02,11,51,9.80
2012,05,02,11,52,9.70
2012,05,02,11,53,9.70
2012,05,02,11,54,9.60
2012,05,02,11,55,9.60
2012,05,02,11,56,9.60
2012,05,02,11,57,9.60
2012,05,02,11,58,9.60
2012,05,02,11,59,9.60
2012,05,02,12,00,9.60
2012,05,02,12,01,9.70
2012,05,02,12,02,9.70
2012,05,02,12,03,9.80
2012,05,02,12,04,9.80
2012,05,02,12,05,9.80
2012,05,02,12,06,9.90
2012,05,02,12,07,9.90
2012,05,02,12,08,9.90
2012,05,02,12,09,9.90
2012,05,02,12,10,9.90
2012,05,02,12,11,9.90
2012,05,02,12,12,9.80
2012,05,02,12,13,9.80
2012,05,02,12,14,9.80
2012,05,02,12,15,9.70
2012,05,02,12,16,9.70
2012,05,02,12,17,9.80
2012,05,02,12,18,9.90
2012,05,02,12,19,10.00
2012,05,02,12,20,10.00
2012,05,02,12,21,9.90
2012,05,02,12,22,9.80
2012,05,02,12,23,9.80
2012,05,02,12,24,9.80
2012,05,02,12,25,9.70
2012,05,02,12,26,9.60
2012,05,02,12,27,9.60
2012,05,02,12,28,9.50
2012,05,02,12,29,9.50
2012,05,02,12,30,9.40
2012,05,02,12,31,9.40
2012,05,02,12,32,9.40
2012,05,02,12,33,9.40
2012,05,02,12,34,9.40
2012,05,02,12,35,9.40
2012,05,02,12,36,9.40
2012,05,02,12,37,9.40
2012,05,02,12,38,9.40
2012,05,02,12,39,9.30
2012,05,02,12,40,9.30
2012,05,02,12,41,9.30
2012,05,02,12,42,9.30
2012,05,02,12,43,9.40
2012,05,02,12,44,9.40
2012,05,02,12,45,9.50
2012,05,02,12,46,9.60
2012,05,02,12,47,9.70
2012,05,02,12,48,9.80
2012,05,02,12,49,9.90
2012,05,02,12,50,10.00
2012,05,02,12,51,9.90
2012,05,02,12,52,9.80
2012,05,02,12,53,9.80
2012,05,02,12,54,9.80
2012,05,02,12,55,9.90
2012,05,02,12,56,9.90
2012,05,02,12,57,9.90
2012,05,02,12,58,9.90
2012,05,02,12,59,9.80
2012,05,02,13,00,9.80
2012,05,02,13,01,9.80
2012,05,02,13,02,9.90
2012,05,02,13,03,10.00
2012,05,02,13,04,9.90
2012,05,02,13,05,9.80
2012,05,02,13,06,9.80
2012,05,02,13,07,9.80
2012,05,02,13,08,9.70
2012,05,02,13,09,9.80
2012,05,02,13,10,9.80
2012,05,02,13,11,9.70
2012,05,02,13,12,9.70
2012,05,02,13,13,9.80
2012,05,02,13,14,9.90
2012,05,02,13,15,10.00
2012,05,02,13,16,10.10
2012,05,02,13,17,10.20
2012,05,02,13,18,10.20
2012,05,02,13,19,10.20
2012,05,02,13,20,10.10
2012,05,02,13,21,10.00
2012,05,02,13,22,9.90
2012,05,02,13,23,9.90
2012,05,02,13,24,9.90
2012,05,02,13,25,10.00
2012,05,02,13,26,10.00
2012,05,02,13,27,10.00
2012,05,02,13,28,10.00
2012,05,02,13,29,10.10
2012,05,02,13,30,10.20
2012,05,02,13,31,10.20
2012,05,02,13,32,10.20
2012,05,02,13,33,10.20
2012,05,02,13,34,10.10
2012,05,02,13,35,10.20
2012,05,02,13,36,10.20
2012,05,02,13,37,10.30
2012,05,02,13,38,10.30
2012,05,02,13,39,10.30
2012,05,02,13,40,10.20
2012,05,02,13,41,10.20
2012,05,02,13,42,10.10
2012,05,02,13,43,10.10
2012,05,02,13,44,10.00
2012,05,02,13,45,10.00
2012,05,02,13,46,10.10
2012,05,02,13,47,10.10
2012,05,02,13,48,10.20
2012,05,02,13,49,10.30
2012,05,02,13,50,10.40
2012,05,02,13,51,10.60
2012,05,02,13,52,10.70
2012,05,02,13,53,10.80
2012,05,02,13,54,10.80
2012,05,02,13,55,10.80
2012,05,02,13,56,10.80
2012,05,02,13,57,10.80
2012,05,02,13,58,10.70
2012,05,02,13,59,10.60
2012,05,02,14,00,10.50
2012,05,02,14,01,10.50
2012,05,02,14,02,10.40
2012,05,02,14,03,10.30
2012,05,02,14,04,10.20
2012,05,02,14,05,10.20
2012,05,02,14,06,10.20
2012,05,02,14,07,10.20
2012,05,02,14,08,10.20
2012,05,02,14,09,10.30
2012,05,02,14,10,10.30
2012,05,02,14,11,10.30
2012,05,02,14,12,10.30
2012,05,02,14,13,10.30
2012,05,02,14,14,10.30
2012,05,02,14,15,10.30
2012,05,02,14,16,10.50
2012,05,02,14,17,10.60
2012,05,02,14,18,10.70
2012,05,02,14,19,10.80
2012,05,02,14,20,10.70
2012,05,02,14,21,10.70
2012,05,02,14,22,10.70
2012,05,02,14,23,10.60
2012,05,02,14,24,10.60
2012,05,02,14,25,10.60
2012,05,02,14,26,10.60
2012,05,02,14,27,10.60
2012,05,02,14,28,10.60
2012,05,02,14,29,10.60
2012,05,02,14,30,10.70
2012,05,02,14,31,10.80
2012,05,02,14,32,10.70
2012,05,02,14,33,10.50
2012,05,02,14,34,10.40
2012,05,02,14,35,10.40
2012,05,02,14,36,10.40
2012,05,02,14,37,10.30
2012,05,02,14,38,10.30
2012,05,02,14,39,10.20
2012,05,02,14,40,10.10
2012,05,02,14,41,10.10
2012,05,02,14,42,10.20
2012,05,02,14,43,10.20
2012,05,02,14,44,10.20
2012,05,02,14,45,10.20
2012,05,02,14,46,10.20
2012,05,02,14,47,10.20
2012,05,02,14,48,10.20
2012,05,02,14,49,10.30
2012,05,02,14,50,10.30
2012,05,02,14,51,10.40
2012,05,02,14,52,10.50
2012,05,02,14,53,10.50
2012,05,02,14,54,10.60
2012,05,02,14,55,10.60
2012,05,02,14,56,10.60
2012,05,02,14,57,10.50
2012,05,02,14,58,10.40
2012,05,02,14,59,10.40
2012,05,02,15,00,10.40
2012,05,02,15,01,10.30
2012,05,02,15,02,10.20
2012,05,02,15,03,10.20
2012,05,02,15,04,10.20
2012,05,02,15,05,10.20
2012,05,02,15,06,10.20
2012,05,02,15,07,10.20
2012,05,02,15,08,10.20
2012,05,02,15,09,10.20
2012,05,02,15,10,10.20
2012,05,02,15,11,10.20
2012,05,02,15,12,10.20
2012,05,02,15,13,10.20
2012,05,02,15,14,10.20
2012,05,02,15,15,10.30
2012,05,02,15,16,10.30
2012,05,02,15,17,10.40
2012,05,02,15,18,10.50
2012,05,02,15,19,10.60
2012,05,02,15,20,10.60
2012,05,02,15,21,10.70
2012,05,02,15,22,10.70
2012,05,02,15,23,10.70
2012,05,02,15,24,10.70
2012,05,02,15,25,10.70
2012,05,02,15,26,10.70
2012,05,02,15,27,10.70
2012,05,02,15,28,10.80
2012,05,02,15,29,10.80
2012,05,02,15,30,10.90
2012,05,02,15,31,11.00
2012,05,02,15,32,11.10
2012,05,02,15,33,11.10
2012,05,02,15,34,11.10
2012,05,02,15,35,11.10
2012,05,02,15,36,11.10
2012,05,02,15,37,11.20
2012,05,02,15,38,11.10
2012,05,02,15,39,11.10
2012,05,02,15,40,11.10
2012,05,02,15,41,11.10
2012,05,02,15,42,11.10
2012,05,02,15,43,11.10
2012,05,02,15,44,11.00
2012,05,02,15,45,11.00
2012,05,02,15,46,11.00
2012,05,02,15,47,10.90
2012,05,02,15,48,10.80
2012,05,02,15,49,10.80
2012,05,02,15,50,10.80
2012,05,02,15,51,10.80
2012,05,02,15,52,10.90
2012,05,02,15,53,10.90
2012,05,02,15,54,10.90
2012,05,02,15,55,11.00
2012,05,02,15,56,11.00
2012,05,02,15,57,11.00
2012,05,02,15,58,10.90
2012,05,02,15,59,10.90
2012,05,02,16,00,10.90
2012,05,02,16,01,10.90
2012,05,02,16,02,10.90
2012,05,02,16,03,10.90
2012,05,02,16,04,10.80
2012,05,02,16,05,10.80
2012,05,02,16,06,10.70
2012,05,02,16,07,10.70
2012,05,02,16,08,10.70
2012,05,02,16,09,10.70
2012,05,02,16,10,10.70
2012,05,02,16,11,10.70
2012,05,02,16,12,10.70
2012,05,02,16,13,10.60
2012,05,02,16,14,10.60
2012,05,02,16,15,10.60
2012,05,02,16,16,10.60
2012,05,02,16,17,10.60
2012,05,02,16,18,10.60
2012,05,02,16,19,10.60
2012,05,02,16,20,10.60
2012,05,02,16,21,10.60
2012,05,02,16,22,10.70
2012,05,02,16,23,10.60
2012,05,02,16,24,10.60
2012,05,02,16,25,10.60
2012,05,02,16,26,10.60
2012,05,02,16,27,10.60
2012,05,02,16,28,10.60
2012,05,02,16,29,10.60
2012,05,02,16,30,10.60
2012,05,02,16,31,10.60
2012,05,02,16,32,10.60
2012,05,02,16,33,10.60
2012,05,02,16,34,10.60
2012,05,02,16,35,10.60
2012,05,02,16,36,10.60
2012,05,02,16,37,10.60
2012,05,02,16,38,10.60
2012,05,02,16,39,10.60
2012,05,02,16,40,10.60
2012,05,02,16,41,10.70
2012,05,02,16,42,10.70
2012,05,02,16,43,10.80
2012,05,02,16,44,10.80
2012,05,02,16,45,10.80
2012,05,02,16,46,10.80
2012,05,02,16,47,10.90
2012,05,02,16,48,10.90
2012,05,02,16,49,10.90
2012,05,02,16,50,10.90
2012,05,02,16,51,11.00
2012,05,02,16,52,11.00
2012,05,02,16,53,11.00
2012,05,02,16,54,11.00
2012,05,02,16,55,11.00
2012,05,02,16,56,11.00
2012,05,02,16,57,10.90
2012,05,02,16,58,10.90
2012,05,02,16,59,10.90
2012,05,02,17,00,10.90
2012,05,02,17,01,11.00
2012,05,02,17,02,11.00
2012,05,02,17,03,11.00
2012,05,02,17,04,11.10
2012,05,02,17,05,11.10
2012,05,02,17,06,11.20
2012,05,02,17,07,11.20
2012,05,02,17,08,11.20
2012,05,02,17,09,11.20
2012,05,02,17,10,11.10
2012,05,02,17,11,11.10
2012,05,02,17,12,11.10
2012,05,02,17,13,11.10
2012,05,02,17,14,11.10
2012,05,02,17,15,11.00
2012,05,02,17,16,11.10
2012,05,02,17,17,11.10
2012,05,02,17,18,11.10
2012,05,02,17,19,11.10
2012,05,02,17,20,11.10
2012,05,02,17,21,11.10
2012,05,02,17,22,11.10
2012,05,02,17,23,11.10
2012,05,02,17,24,11.10
2012,05,02,17,25,11.10
2012,05,02,17,26,11.10
2012,05,02,17,27,11.20
2012,05,02,17,28,11.20
2012,05,02,17,29,11.20
2012,05,02,17,30,11.20
2012,05,02,17,31,11.30
2012,05,02,17,32,11.30
2012,05,02,17,33,11.40
2012,05,02,17,34,11.40
2012,05,02,17,35,11.50
2012,05,02,17,36,11.50
2012,05,02,17,37,11.60
2012,05,02,17,38,11.60
2012,05,02,17,39,11.60
2012,05,02,17,40,11.60
2012,05,02,17,41,11.60
2012,05,02,17,42,11.60
2012,05,02,17,43,11.60
2012,05,02,17,44,11.50
2012,05,02,17,45,11.50
2012,05,02,17,46,11.50
2012,05,02,17,47,11.40
2012,05,02,17,48,11.40
2012,05,02,17,49,11.50
2012,05,02,17,50,11.50
2012,05,02,17,51,11.60
2012,05,02,17,52,11.60
2012,05,02,17,53,11.70